Starlink 32731

operational
NORAD ID: 62493 Int'l Des: 2025-003 Owner: SPXS Country: US Constellation: starlink
LEOCIRCULAR

Über Starlink 32731

Beschreibung wird geladen...

Live-Position

3D-Globus wird geladen...

Nächste Überflüge

Höhenverlauf

Altitude vs Time

uPlot chart will show altitude changes over time

Zweizeiliger Elementsatz

1 62493U 25003G 25300.34302921 .00043867 00000-0 15918-2 0 9992
2 62493 43.0035 322.4125 0001537 260.4628 99.6050 15.27629396 46272
Epoch: 27. Okt. 2025 • Age: 55 hours

Aktueller Status

Höhe 484.3 km
Geschwindigkeit 7.62 km/s
Subsatellitenpunkt -13.10°S, 30.92°E
Startdatum 6. Jan. 2025
Alter 0.8 years
Typ internet

Technische Details

Klassifizierung Payload
Masse 730.00 kg
Trockenmasse 700.00 kg
Gesamtmasse 730.00 kg
Länge 0.30 m
Durchmesser 4.10 m
Spannweite 29.00 m
Form Box + pan
Hersteller SPXS
Bus-Typ Starlink V2M
Phasenstatus In Orbit
Besitzer/Staat SPXS/US

Große Konstellationen

Loading constellations...